カタログに戻る

ONEWEB-0266

運用中通信PO
NORAD 48984·PAYLOAD·🇬🇧 United Kingdom

打ち上げ Jul 1, 2021 から Vostochny Cosmodrome

Loading…

次のパス (今後24時間)

TLE

最新Source: CelesTrak SupGP

元期: Sep 15, 2026, 01:04 UTC

1 48984C 21060T   26258.04496944 -.00002843  00000+0 -74464-2 0  2588
2 48984  87.9150 210.9339 0001992  81.0974 330.6233 13.16592998    16

AllMySatでONEWEB-0266をリアルタイム追跡

Download on the App Store